Hourly Weather Kitaeva

Today, 27 July, Tuesday

Time Temperature Precipitation Wind Pressure Humidity
00:00 +19°C° 0.1 mm 1 mps 750 mmHg 80%
01:00 +18°C° 0.1 mm 1 mps 750 mmHg 82%
02:00 +18°C° 0.1 mm 1 mps 750 mmHg 84%
03:00 +18°C° 0.4 mm 1 mps 750 mmHg 85%
04:00 +18°C° 0.4 mm 1 mps 750 mmHg 86%
05:00 +18°C° 0.4 mm 1 mps 750 mmHg 87%
06:00 +20°C° 0.1 mm 1 mps 750 mmHg 81%
07:00 +22°C° 0.1 mm 1 mps 750 mmHg 76%
08:00 +24°C° 0.1 mm 2 mps 750 mmHg 70%
09:00 +25°C° 0 mm 2 mps 750 mmHg 63%
10:00 +27°C° 0 mm 2 mps 750 mmHg 56%
11:00 +29°C° 0 mm 2 mps 750 mmHg 49%
12:00 +29°C° 0 mm 2 mps 749 mmHg 48%
13:00 +29°C° 0 mm 2 mps 749 mmHg 46%
14:00 +29°C° 0 mm 2 mps 749 mmHg 45%
15:00 +29°C° 0 mm 2 mps 748 mmHg 48%
16:00 +29°C° 0 mm 2 mps 748 mmHg 51%
17:00 +28°C° 0 mm 2 mps 748 mmHg 54%
18:00 +27°C° 0 mm 2 mps 748 mmHg 57%
19:00 +25°C° 0 mm 2 mps 747 mmHg 60%
20:00 +23°C° 0 mm 1 mps 747 mmHg 63%
21:00 +23°C° 0 mm 2 mps 747 mmHg 65%
22:00 +21°C° 0 mm 2 mps 747 mmHg 66%
23:00 +21°C° 0 mm 2 mps 747 mmHg 67%

Tomorrow, 28 July, Wednesday

Time Temperature Precipitation Wind Pressure Humidity
00:00 +20°C° 0 mm 2 mps 747 mmHg 66%
01:00 +20°C° 0 mm 2 mps 747 mmHg 66%
02:00 +20°C° 0 mm 2 mps 747 mmHg 66%
03:00 +20°C° 0 mm 2 mps 746 mmHg 67%
04:00 +20°C° 0 mm 2 mps 746 mmHg 68%
05:00 +19°C° 0 mm 2 mps 746 mmHg 68%
06:00 +20°C° 0 mm 2 mps 746 mmHg 68%
07:00 +20°C° 0 mm 2 mps 746 mmHg 67%
08:00 +21°C° 0 mm 2 mps 745 mmHg 66%
09:00 +20°C° 0.5 mm 3 mps 745 mmHg 74%
10:00 +20°C° 0.5 mm 3 mps 745 mmHg 82%
11:00 +19°C° 0.5 mm 3 mps 745 mmHg 90%
12:00 +19°C° 0.9 mm 4 mps 745 mmHg 88%
13:00 +19°C° 0.9 mm 5 mps 745 mmHg 86%
14:00 +19°C° 0.9 mm 5 mps 744 mmHg 84%
15:00 +20°C° 0.4 mm 5 mps 743 mmHg 83%
16:00 +21°C° 0.4 mm 5 mps 743 mmHg 82%
17:00 +22°C° 0.4 mm 4 mps 742 mmHg 81%
18:00 +21°C° 0.4 mm 5 mps 742 mmHg 85%
19:00 +20°C° 0.4 mm 5 mps 742 mmHg 89%
20:00 +20°C° 0.4 mm 5 mps 741 mmHg 93%
21:00 +19°C° 0 mm 5 mps 741 mmHg 94%
22:00 +19°C° 0 mm 4 mps 741 mmHg 95%
23:00 +19°C° 0 mm 3 mps 741 mmHg 96%

Day after tomorrow, 29 July, Thursday

Time Temperature Precipitation Wind Pressure Humidity
00:00 +19°C° 0 mm 3 mps 741 mmHg 96%
01:00 +18°C° 0 mm 3 mps 741 mmHg 97%
02:00 +18°C° 0 mm 3 mps 741 mmHg 97%
03:00 +18°C° 0 mm 3 mps 741 mmHg 97%
04:00 +18°C° 0 mm 3 mps 741 mmHg 97%
05:00 +18°C° 0 mm 2 mps 741 mmHg 96%
06:00 +20°C° 0 mm 3 mps 741 mmHg 89%
07:00 +22°C° 0 mm 3 mps 741 mmHg 82%
08:00 +24°C° 0 mm 3 mps 741 mmHg 75%
09:00 +26°C° 0 mm 3 mps 741 mmHg 68%
10:00 +27°C° 0 mm 3 mps 741 mmHg 61%
11:00 +29°C° 0 mm 3 mps 741 mmHg 54%
12:00 +29°C° 0 mm 3 mps 741 mmHg 53%
13:00 +29°C° 0 mm 4 mps 740 mmHg 51%
14:00 +30°C° 0 mm 4 mps 740 mmHg 50%
15:00 +29°C° 0 mm 3 mps 740 mmHg 55%
16:00 +28°C° 0 mm 2 mps 739 mmHg 60%
17:00 +27°C° 0 mm 1 mps 739 mmHg 64%
18:00 +25°C° 0.3 mm 2 mps 739 mmHg 71%
19:00 +23°C° 0.3 mm 2 mps 739 mmHg 78%
20:00 +20°C° 0.3 mm 2 mps 739 mmHg 85%
21:00 +20°C° 0.1 mm 2 mps 739 mmHg 86%
22:00 +21°C° 0.1 mm 1 mps 739 mmHg 87%
23:00 +21°C° 0.1 mm 1 mps 739 mmHg 89%

30 July, Friday

Time Temperature Precipitation Wind Pressure Humidity
00:00 +20°C° 0.2 mm 1 mps 739 mmHg 90%
01:00 +19°C° 0.2 mm 2 mps 739 mmHg 91%
02:00 +19°C° 0.2 mm 2 mps 739 mmHg 92%
03:00 +18°C° 0 mm 2 mps 740 mmHg 92%
04:00 +18°C° 0 mm 2 mps 740 mmHg 92%
05:00 +18°C° 0 mm 2 mps 740 mmHg 92%
06:00 +19°C° 0 mm 2 mps 740 mmHg 86%
07:00 +21°C° 0 mm 2 mps 740 mmHg 80%
08:00 +24°C° 0 mm 2 mps 740 mmHg 74%
09:00 +25°C° 0 mm 2 mps 740 mmHg 67%
10:00 +26°C° 0 mm 2 mps 740 mmHg 61%
11:00 +28°C° 0 mm 2 mps 740 mmHg 54%
12:00 +28°C° 0 mm 3 mps 740 mmHg 54%
13:00 +28°C° 0 mm 3 mps 740 mmHg 54%
14:00 +28°C° 0 mm 3 mps 740 mmHg 53%
15:00 +28°C° 0 mm 3 mps 740 mmHg 57%
16:00 +27°C° 0 mm 2 mps 740 mmHg 61%
17:00 +26°C° 0 mm 2 mps 740 mmHg 64%
18:00 +25°C° 0 mm 2 mps 740 mmHg 65%
19:00 +24°C° 0 mm 2 mps 740 mmHg 66%
20:00 +23°C° 0 mm 2 mps 740 mmHg 66%
21:00 +21°C° 0 mm 2 mps 740 mmHg 68%
22:00 +20°C° 0 mm 2 mps 740 mmHg 70%
23:00 +19°C° 0 mm 2 mps 740 mmHg 72%

31 July, Saturday

Time Temperature Precipitation Wind Pressure Humidity
00:00 +19°C° 0 mm 2 mps 740 mmHg 73%
01:00 +18°C° 0 mm 2 mps 740 mmHg 73%
02:00 +18°C° 0 mm 2 mps 740 mmHg 74%
03:00 +18°C° 0 mm 2 mps 740 mmHg 74%
04:00 +18°C° 0 mm 3 mps 740 mmHg 74%
05:00 +18°C° 0 mm 3 mps 740 mmHg 74%
06:00 +20°C° 0 mm 3 mps 740 mmHg 69%
07:00 +22°C° 0 mm 4 mps 740 mmHg 64%
08:00 +25°C° 0 mm 4 mps 740 mmHg 59%
09:00 +26°C° 0 mm 5 mps 740 mmHg 55%
10:00 +28°C° 0 mm 5 mps 740 mmHg 52%
11:00 +29°C° 0 mm 6 mps 740 mmHg 48%
12:00 +29°C° 0 mm 5 mps 740 mmHg 50%
13:00 +28°C° 0 mm 5 mps 740 mmHg 51%
14:00 +28°C° 0 mm 5 mps 740 mmHg 53%
15:00 +28°C° 0 mm 4 mps 740 mmHg 56%
16:00 +27°C° 0 mm 3 mps 740 mmHg 59%
17:00 +27°C° 0 mm 2 mps 740 mmHg 61%
18:00 +26°C° 0 mm 2 mps 740 mmHg 66%
19:00 +24°C° 0 mm 2 mps 740 mmHg 71%
20:00 +23°C° 0 mm 1 mps 739 mmHg 75%
21:00 +21°C° 0.1 mm 2 mps 739 mmHg 76%
22:00 +21°C° 0.1 mm 2 mps 739 mmHg 77%
23:00 +20°C° 0.1 mm 2 mps 739 mmHg 77%

1 August, Sunday

Time Temperature Precipitation Wind Pressure Humidity
00:00 +20°C° 0.1 mm 2 mps 739 mmHg 77%
01:00 +20°C° 0.1 mm 2 mps 738 mmHg 76%
02:00 +20°C° 0.1 mm 3 mps 738 mmHg 76%
03:00 +20°C° 0.1 mm 3 mps 738 mmHg 77%
04:00 +19°C° 0.1 mm 3 mps 737 mmHg 78%
05:00 +19°C° 0.1 mm 3 mps 737 mmHg 80%
06:00 +20°C° 0.1 mm 3 mps 737 mmHg 80%
07:00 +21°C° 0.1 mm 4 mps 737 mmHg 81%
08:00 +22°C° 0.1 mm 5 mps 737 mmHg 81%
09:00 +23°C° 0.1 mm 5 mps 737 mmHg 77%
10:00 +25°C° 0.1 mm 5 mps 738 mmHg 73%
11:00 +26°C° 0.1 mm 5 mps 738 mmHg 69%
12:00 +27°C° 0.1 mm 5 mps 738 mmHg 65%
13:00 +27°C° 0.1 mm 5 mps 739 mmHg 61%
14:00 +28°C° 0.1 mm 6 mps 739 mmHg 58%
15:00 +28°C° 0 mm 5 mps 739 mmHg 57%
16:00 +28°C° 0 mm 4 mps 739 mmHg 56%
17:00 +28°C° 0 mm 3 mps 739 mmHg 56%
18:00 +27°C° 0 mm 3 mps 739 mmHg 61%
19:00 +25°C° 0 mm 3 mps 740 mmHg 66%
20:00 +24°C° 0 mm 3 mps 740 mmHg 71%
21:00 +22°C° 0 mm 3 mps 740 mmHg 74%
22:00 +21°C° 0 mm 2 mps 740 mmHg 77%
23:00 +20°C° 0 mm 2 mps 740 mmHg 80%
Show more